THOR ABLESTAR DEB, 467

Orbit data source: Space-Track

THOR ABLESTAR DEB, 467 is space debris in LEO originally from a launch on Thu, 29 Jun 1961 UTC launched from the Air Force Eastern Test Range (AFETR). Debris objects in space refer to the collection of defunct objects orbiting the Earth. Examples of debris include non-operational satellites, rocket bodies, and fragments generated from explosions, collisions, or faulty payload assembly.

Loading next visibility...
Identifier
467, 1961-015FD
Orbit
LEO
Last TLE update
10 hours ago
Origin
Manufacturer
Unknown
Mission
Spacecraft
Bus & Motor
Unknown
Mass
Unknown
Launch date (UTC)
1961-06-29 (64 years ago)
Launch vehicle
Unknown
Launch site
Air Force Eastern Test Range (AFETR)
Object type
Payload
Rocket body
Debris
Shape & HBR
Unknown
Radar Cross Section
Small (<0.1 m²)

Expand to show TLE details & history

TLE from 10 hours ago
0 THOR ABLESTAR DEB
1   467U 61015FD  25128.93311526  .00002385  00000-0  29158-2 0  9993
2   467  66.5593 309.5668 0241051 210.4810 148.2053 13.55885883226488
Epoch: 2025-05-08T22:23Z
Definitive object data (Epoch: 2025-05-08T22:23:41.158Z)
Latitude
-0.00002°
Longitude
106.64879°
Altitude
1,206.083 km
Speed
7.176 km/s
True Right ascension
20h 38m 16s
True Declination
0° 00' 00"
Sunlit
Object was in daylight at TLE epoch
Visualization TLE readout
Latitude
42.45428°
Longitude
-97.51577°
Altitude
1,013.121 km
Speed
7.371 km/s
Apparent Right ascension
05h 37m 58s
Apparent Declination
5° 20' 05"
Sunlit
Object is in daylight
Visualization observer readout
Local Sidereal Time
16:04:11
Azimuth
328.931° NNW
Elevation
-39.864°
Doppler factor
1
Orbital elements
Apogee altitude
1,228.163 km
Perigee altitude
870.093 km
Semi-major axis
7,427.265 km
Eccentricity
0.0241051
Inclination
66.5593°
RAAN
309.5668°
Arg. of periapsis
210.481°
True anomaly
149.62414°
Mean anomaly
148.2053°
Eccentric anomaly
148.91832°
Mean motion
3.39078 °/min
BSTAR
0.0029158
Orbital period
106.17 mins
Loading maneuver chart data...
Loading SW <> Apogee altitude chart data...

THOR ABLESTAR DEB Visibility forecast

Observer location: undefined°, undefined°

Span
Click to sort rows by Start time (UTC) header in descending order
Start Az.
Max El. time (UTC)
Max El. Az.
Max El.
End time (UTC)
End Az.
13 mins2025-05-09 12:39:07.181Z171.42° S2025-05-09 12:46:07.181Z100.465° ESE31.361°2025-05-09 12:52:07.181Z45.801° ENE
12 mins2025-05-09 14:29:07.181Z237.76° WSW2025-05-09 14:35:07.181Z312.878° NW37.009°2025-05-09 14:41:07.181Z17.534° NNE
5 mins2025-05-09 16:24:07.181Z312.109° NW2025-05-09 16:26:07.181Z329.025° NNW13.465°2025-05-09 16:29:07.181Z354.045° N
10 mins2025-05-09 21:59:07.181Z346.063° N2025-05-09 22:04:07.181Z50.631° ENE34.819°2025-05-09 22:09:07.181Z119.645° SE
9 mins2025-05-09 23:49:07.181Z304.263° NW2025-05-09 23:53:07.181Z254.129° W28.252°2025-05-09 23:58:07.181Z193.675° SSW
|